Time,TemperatureF,DewpointF,PressureIn,WindDirection,WindDirectionDegrees,WindSpeedMPH,WindSpeedGustMPH,Humidity,HourlyPrecipIn,Conditions,Clouds,dailyrainin,SoftwareType,DateUTC
2013-04-08 00:00:00,44.0,-99.9,-100.00,SE,140,3.0,-999.0,-999,-99.99,,,-99.99,,2013-04-08 07:00:00,
2013-04-08 01:00:00,44.0,-99.9,-100.00,SE,143,3.0,-999.0,-999,-99.99,,,-99.99,,2013-04-08 08:00:00,
2013-04-08 02:00:00,44.0,-99.9,-100.00,SSE,152,3.0,-999.0,-999,-99.99,,,-99.99,,2013-04-08 09:00:00,
2013-04-08 03:00:00,45.0,-99.9,-100.00,SE,138,3.0,-999.0,-999,-99.99,,,-99.99,,2013-04-08 10:00:00,
2013-04-08 04:00:00,45.0,-99.9,-100.00,South,169,3.0,-999.0,-999,-99.99,,,-99.99,,2013-04-08 11:00:00,
2013-04-08 05:00:00,45.0,-99.9,-100.00,South,169,5.0,-999.0,-999,-99.99,,,-99.99,,2013-04-08 12:00:00,
2013-04-08 06:00:00,44.0,-99.9,-100.00,SSE,166,5.0,-999.0,-999,-99.99,,,-99.99,,2013-04-08 13:00:00,
2013-04-08 08:00:00,45.0,-99.9,-100.00,SSE,152,3.0,-999.0,-999,-99.99,,,-99.99,,2013-04-08 15:00:00,
2013-04-08 09:00:00,46.0,-99.9,-100.00,SSE,152,3.0,-999.0,-999,-99.99,,,-99.99,,2013-04-08 16:00:00,
2013-04-08 10:00:00,48.0,-99.9,-100.00,South,172,5.0,-999.0,-999,-99.99,,,-99.99,,2013-04-08 17:00:00,
2013-04-08 11:00:00,50.0,-99.9,-100.00,SSW,196,5.0,-999.0,-999,-99.99,,,-99.99,,2013-04-08 18:00:00,
2013-04-08 12:00:00,54.0,-99.9,-100.00,SSW,201,3.0,-999.0,-999,-99.99,,,-99.99,,2013-04-08 19:00:00,
2013-04-08 13:00:00,55.0,-99.9,-100.00,SW,235,3.0,-999.0,-999,-99.99,,,-99.99,,2013-04-08 20:00:00,
2013-04-08 14:00:00,58.0,-99.9,-100.00,SSW,204,5.0,-999.0,-999,-99.99,,,-99.99,,2013-04-08 21:00:00,
2013-04-08 15:00:00,58.0,-99.9,-100.00,South,191,6.0,-999.0,-999,-99.99,,,-99.99,,2013-04-08 22:00:00,
2013-04-08 16:00:00,60.0,-99.9,-100.00,SSW,195,6.0,-999.0,-999,-99.99,,,-99.99,,2013-04-08 23:00:00,
2013-04-08 17:00:00,60.0,-99.9,-100.00,SSW,199,5.0,-999.0,-999,-99.99,,,-99.99,,2013-04-09 00:00:00,
2013-04-08 18:00:00,59.0,-99.9,-100.00,SW,234,6.0,-999.0,-999,-99.99,,,-99.99,,2013-04-09 01:00:00,
2013-04-08 19:00:00,56.0,-99.9,-100.00,SSW,213,3.0,-999.0,-999,-99.99,,,-99.99,,2013-04-09 02:00:00,
2013-04-08 20:00:00,54.0,-99.9,-100.00,SW,229,2.0,-999.0,-999,-99.99,,,-99.99,,2013-04-09 03:00:00,
2013-04-08 23:00:00,49.0,-99.9,-100.00,SSW,194,2.0,-999.0,-999,-99.99,,,-99.99,,2013-04-09 06:00:00,